Weather History for KOSC - August, 2013

Change the Weather History Date:

Tuesday, August 20, 2013

  Actual Average Record
Temperature  
Mean Temperature 74 °F -  
Max Temperature 88 °F 74 °F 88 °F (2013)
Min Temperature 60 °F 56 °F 41 °F (2008)
Cooling Degree Days 9    
Growing Degree Days 24 (Base 50)    
Moisture  
Dew Point 60 °F    
Average Humidity 64    
Maximum Humidity 89    
Minimum Humidity 34    
Precipitation  
Precipitation 0.00 in - - ()
Sea Level Pressure  
Sea Level Pressure 30.04 in    
Wind  
Wind Speed 7 mph (SW)    
Max Wind Speed 14 mph    
Max Gust Speed 20 mph    
Visibility 10 miles    
Events      
Averages and records for this station are not official NWS values.
T = Trace of Precipitation, MM = Missing Value Source: NWS Daily Summary

Daily Weather History Graph

Daily Weather History Graph

Search for Another Location

Airport or City:

Trip Planner

Search our weather history database for the weather conditions in past years. The results will help you decide how hot, cold, wet, or windy it might be!

Date:

Astronomy

Aug. 20, 2013 Rise Set
Actual Time 6:42 AM EDT 8:30 PM EDT
Civil Twilight 6:11 AM EDT 9:01 PM EDT
Nautical Twilight 5:33 AM EDT 9:38 PM EDT
Astronomical Twilight 4:52 AM EDT 10:19 PM EDT
Moon 7:58 PM EDT (8/20) 6:12 AM EDT (8/20)
Length of Visible Light 14h 49m
Length of Day
13h 47m
Full, 100% of the Moon is Illuminated
Aug 20
Full
Aug 20
Full
Aug 28
Last Quarter
Sep 5
New
Sep 12
First Quarter

Hourly Weather History & Observations

Time (EDT) Temp. Heat Index Dew Point Humidity Pressure Visibility Wind Dir Wind Speed Gust Speed Precip Events Conditions
12:13 AM 64.2 °F - 57.2 °F 78% 30.02 in 10.0 mi WSW 5.8 mph - N/A   Clear
12:34 AM 63.9 °F - 57.4 °F 79% 30.02 in 10.0 mi WSW 4.6 mph - N/A   Clear
12:54 AM 64.2 °F - 57.4 °F 78% 30.02 in 10.0 mi WSW 3.5 mph - N/A   Clear
1:13 AM 65.3 °F - 57.6 °F 76% 30.02 in 10.0 mi SW 4.6 mph - N/A   Clear
1:34 AM 63.0 °F - 56.8 °F 80% 30.02 in 10.0 mi SW 3.5 mph - N/A   Clear
1:54 AM 64.4 °F - 57.6 °F 78% 30.02 in 10.0 mi SSW 4.6 mph - N/A   Clear
2:13 AM 64.6 °F - 57.9 °F 79% 30.02 in 10.0 mi SW 5.8 mph - N/A   Clear
2:34 AM 63.7 °F - 57.6 °F 80% 30.02 in 10.0 mi SW 5.8 mph - N/A   Clear
2:54 AM 63.5 °F - 57.6 °F 81% 30.02 in 10.0 mi SW 5.8 mph - N/A   Clear
3:13 AM 63.5 °F - 57.6 °F 81% 30.02 in 10.0 mi SW 5.8 mph - N/A   Clear
3:34 AM 63.5 °F - 57.7 °F 81% 30.02 in 10.0 mi SW 6.9 mph - N/A   Clear
3:54 AM 63.1 °F - 57.6 °F 82% 30.03 in 10.0 mi SW 5.8 mph - N/A   Clear
4:13 AM 63.0 °F - 57.6 °F 82% 30.03 in 10.0 mi SW 5.8 mph - N/A   Clear
4:34 AM 62.8 °F - 57.6 °F 83% 30.03 in 10.0 mi SW 6.9 mph - N/A   Clear
4:54 AM 62.8 °F - 57.6 °F 83% 30.03 in 10.0 mi SW 5.8 mph - N/A   Clear
5:14 AM 62.8 °F - 57.6 °F 83% 30.03 in 10.0 mi SW 6.9 mph - N/A   Clear
5:34 AM 62.1 °F - 57.4 °F 85% 30.03 in 10.0 mi SW 6.9 mph - N/A   Clear
5:53 AM 61.9 °F - 57.4 °F 85% 30.03 in 10.0 mi SW 6.9 mph - N/A   Clear
6:14 AM 61.7 °F - 57.2 °F 85% 30.03 in 10.0 mi SW 5.8 mph - N/A   Clear
6:34 AM 61.7 °F - 57.2 °F 85% 30.04 in 10.0 mi SW 6.9 mph - N/A   Clear
6:53 AM 61.5 °F - 57.2 °F 86% 30.05 in 10.0 mi SW 5.8 mph - N/A   Clear
7:14 AM 60.4 °F - 57.2 °F 89% 30.06 in 10.0 mi SW 5.8 mph - N/A   Clear
7:34 AM 61.3 °F - 57.6 °F 87% 30.06 in 10.0 mi SW 5.8 mph - N/A   Clear
7:53 AM 62.8 °F - 58.1 °F 85% 30.06 in 10.0 mi SW 6.9 mph - N/A   Clear
8:14 AM 64.4 °F - 58.5 °F 81% 30.07 in 10.0 mi SW 8.1 mph - N/A   Clear
8:34 AM 66.2 °F - 59.0 °F 78% 30.07 in 10.0 mi SW 8.1 mph - N/A   Clear
8:53 AM 68.0 °F - 59.5 °F 74% 30.08 in 10.0 mi SW 8.1 mph - N/A   Clear
9:14 AM 71.1 °F - 60.4 °F 69% 30.08 in 10.0 mi WSW 9.2 mph - N/A   Clear
9:33 AM 73.2 °F - 61.0 °F 65% 30.08 in 10.0 mi WSW 10.4 mph - N/A   Clear
9:54 AM 75.6 °F - 61.5 °F 62% 30.08 in 10.0 mi WSW 9.2 mph - N/A   Clear
10:14 AM 77.2 °F - 61.9 °F 59% 30.08 in 10.0 mi WSW 9.2 mph - N/A   Clear
10:33 AM 79.0 °F - 61.9 °F 56% 30.08 in 10.0 mi WSW 10.4 mph - N/A   Clear
10:54 AM 80.6 °F 81.7 °F 61.9 °F 53% 30.08 in 10.0 mi WSW 9.2 mph - N/A   Clear
11:14 AM 81.1 °F 82.1 °F 61.9 °F 52% 30.08 in 10.0 mi WSW 9.2 mph 16.1 mph N/A   Clear
11:33 AM 82.8 °F 83.4 °F 61.9 °F 49% 30.08 in 10.0 mi SW 10.4 mph - N/A   Clear
11:54 AM 83.1 °F 83.9 °F 61.9 °F 49% 30.08 in 10.0 mi West 6.9 mph - N/A   Clear
12:14 PM 84.0 °F 84.2 °F 60.8 °F 45% 30.08 in 10.0 mi SW 11.5 mph 16.1 mph N/A   Clear
12:33 PM 84.4 °F 84.4 °F 60.4 °F 44% 30.07 in 10.0 mi West 10.4 mph 16.1 mph N/A   Clear
12:54 PM 84.9 °F 84.6 °F 59.7 °F 42% 30.07 in 10.0 mi WSW 8.1 mph - N/A   Scattered Clouds
1:14 PM 86.0 °F 85.2 °F 58.1 °F 39% 30.07 in 10.0 mi WSW 10.4 mph - N/A   Clear
1:33 PM 85.8 °F 85.4 °F 59.9 °F 41% 30.07 in 10.0 mi SW 8.1 mph - N/A   Clear
1:54 PM 86.7 °F 86.3 °F 59.5 °F 40% 30.06 in 10.0 mi WSW 13.8 mph 18.4 mph N/A   Scattered Clouds
2:14 PM 88.3 °F 87.6 °F 58.6 °F 37% 30.06 in 10.0 mi SW 8.1 mph 16.1 mph N/A   Mostly Cloudy
2:33 PM 87.8 °F 86.9 °F 58.6 °F 37% 30.05 in 10.0 mi WSW 5.8 mph 16.1 mph N/A   Overcast
2:54 PM 87.8 °F 86.7 °F 58.1 °F 36% 30.05 in 10.0 mi SW 12.7 mph - N/A   Mostly Cloudy
3:13 PM 88.0 °F 86.9 °F 58.3 °F 36% 30.05 in 10.0 mi West 11.5 mph 17.3 mph N/A   Mostly Cloudy
3:34 PM 88.5 °F 87.1 °F 57.2 °F 34% 30.04 in 10.0 mi SW 11.5 mph 19.6 mph N/A   Scattered Clouds
3:54 PM 88.7 °F 87.3 °F 57.0 °F 34% 30.03 in 10.0 mi SW 8.1 mph 17.3 mph N/A   Scattered Clouds
4:14 PM 88.2 °F 86.7 °F 56.7 °F 34% 30.03 in 10.0 mi SW 12.7 mph 16.1 mph N/A   Scattered Clouds
4:33 PM 88.3 °F 87.1 °F 57.4 °F 35% 30.02 in 10.0 mi SW 10.4 mph - N/A   Scattered Clouds
4:54 PM 87.8 °F 87.4 °F 60.1 °F 39% 30.02 in 10.0 mi WSW 12.7 mph 17.3 mph N/A   Scattered Clouds
5:13 PM 86.0 °F 86.3 °F 61.9 °F 44% 30.02 in 10.0 mi SSW 8.1 mph - N/A   Scattered Clouds
5:34 PM 85.6 °F 85.9 °F 61.2 °F 44% 30.02 in 10.0 mi South 12.7 mph - N/A   Scattered Clouds
5:54 PM 84.6 °F 85.2 °F 62.4 °F 47% 30.02 in 10.0 mi SSW 10.4 mph 17.3 mph N/A   Clear
6:13 PM 85.3 °F 86.1 °F 62.8 °F 47% 30.02 in 10.0 mi South 8.1 mph - N/A   Scattered Clouds
6:34 PM 83.5 °F 84.5 °F 63.1 °F 50% 30.02 in 10.0 mi South 10.4 mph - N/A   Scattered Clouds
6:54 PM 83.8 °F 84.9 °F 63.1 °F 50% 30.02 in 10.0 mi SSW 6.9 mph - N/A   Scattered Clouds
7:13 PM 83.3 °F 84.4 °F 63.5 °F 51% 30.02 in 10.0 mi SSW 11.5 mph - N/A   Clear
7:34 PM 81.9 °F 83.2 °F 63.5 °F 54% 30.02 in 10.0 mi SSW 6.9 mph - N/A   Clear
7:54 PM 80.6 °F 82.0 °F 63.7 °F 56% 30.03 in 10.0 mi SSW 6.9 mph - N/A   Clear
8:13 PM 79.3 °F - 63.9 °F 59% 30.02 in 10.0 mi South 8.1 mph - N/A   Clear
8:34 PM 78.3 °F - 63.7 °F 61% 30.03 in 10.0 mi SSW 6.9 mph - N/A   Clear
8:54 PM 77.7 °F - 63.5 °F 61% 30.03 in 10.0 mi SSW 8.1 mph - N/A   Clear
9:13 PM 76.6 °F - 63.7 °F 64% 30.04 in 10.0 mi SSW 6.9 mph - N/A   Clear
9:34 PM 74.7 °F - 63.5 °F 68% 30.04 in 10.0 mi SSW 5.8 mph - N/A   Clear
9:54 PM 70.9 °F - 63.3 °F 77% 30.05 in 10.0 mi SW 4.6 mph - N/A   Clear
10:13 PM 71.1 °F - 63.3 °F 76% 30.05 in 10.0 mi SW 3.5 mph - N/A   Clear
10:34 PM 70.9 °F - 63.0 °F 76% 30.05 in 10.0 mi SW 5.8 mph - N/A   Clear
10:54 PM 68.5 °F - 62.1 °F 80% 30.05 in 10.0 mi SW 5.8 mph - N/A   Clear
11:13 PM 68.7 °F - 61.9 °F 79% 30.06 in 10.0 mi SW 4.6 mph - N/A   Clear
11:34 PM 67.1 °F - 61.3 °F 82% 30.06 in 10.0 mi SW 3.5 mph - N/A   Clear
11:54 PM 68.2 °F - 61.5 °F 79% 30.06 in 10.0 mi SW 4.6 mph - N/A   Clear